Regional Weather Roundup
Issued by NWS Sterling, VA

Home | Current Version | Previous Version | Graphics & Text | Print | Product List | Glossary On
Versions: 1 2 3 4 5 6 7 8 9 10 11 12 13 14 15 16 17 18 19 20 21 22 23 24 25 26 27 28 29 30 31 32 33 34 35 36 37 38 39 40 41 42 43 44 45 46 47 48 49 50
000
ASUS41 KLWX 130210
RWRLWX

REGIONAL WEATHER ROUNDUP
NATIONAL WEATHER SERVICE BALTIMORE MD/WASHINGTON DC
900 PM EST FRI FEB 12 2016

Note: "FAIR" indicates few or no clouds below 12,000 feet
with no significant weather and/or obstructions to visibility.
 TC=TEMPERATURE CELSIUS

 * =Non NWS site. Station does not report precipitation (e.g. rain,
    snow, etc.), thunder, or fog.

DCZ001-MDZ009-015-VAZ040>042-051-053>054-130300-
WASHINGTON METRO

CITY           SKY/WX    TMP DP  RH WIND       PRES   REMARKS
WASHINGTON NAT CLOUDY    28  13  53 S6        30.01F
DULLES         CLOUDY    27  10  49 W6        30.00R
ANDREWS AFB    CLOUDY    26  13  58 S3        29.98F
FT BELVOIR     CLOUDY    27  11  51 CALM      30.01S
QUANTICO       CLOUDY    31  12  45 SW6       30.02F
COLLEGE PARK*  CLOUDY    28  16  59 N3        30.00S
LEESBURG*      CLOUDY    30  21  69 NW8       30.01R WCI  23
MANASSAS*      CLOUDY    27  19  74 CALM      30.01R
GAITHERSBURG*  CLOUDY    21  10  63 CALM      30.02S

$$

MDZ006>007-011-014-130300-
BALTIMORE METRO

CITY           SKY/WX    TMP DP  RH WIND       PRES   REMARKS
BWI AIRPORT    CLOUDY    24  15  68 CALM      30.00S
MD SCIENCE CTR   N/A     25  16  68 MISG      30.01S
MARTIN STATE   CLEAR     25  21  86 CALM      30.02F
ANNAPOLIS      CLOUDY    27  18  69 S5        30.01S
FORT MEADE*    CLOUDY    25  16  68 CALM      30.02F

$$

MDZ012-015-019>023-130300-
MARYLAND EASTERN SHORE

CITY           SKY/WX    TMP DP  RH WIND       PRES   REMARKS
OCEAN CITY     LGT SNOW  24  20  84 W5        30.02S FOG
SALISBURY      CLOUDY    24  17  74 NW3       30.01S
BAY BRIDGE AP*   N/A     28  16  59 CALM      30.01S
CAMBRIDGE*     CLOUDY    27  16  63 CALM      30.01S
EASTON*        MOCLDY    27  16  63 CALM      30.04

$$

MDZ017>025-130300-
SOUTHERN MARYLAND

CITY           SKY/WX    TMP DP  RH WIND       PRES   REMARKS
PATUXENT RIVER CLOUDY    27  17  66 SW5       30.01S
ST INIGOES     PTCLDY    27  20  75 S5        30.01S
LEONARDTOWN*     N/A     27  18  69 MISG        N/A

$$

MDZ003>005-130300-
NORTH CENTRAL MARYLAND

CITY           SKY/WX    TMP DP  RH WIND       PRES   REMARKS
FREDERICK*     LGT SNOW  27  23  86 W6        30.04R
HAGERSTOWN APT CLOUDY    23  18  81 W9        29.97S WCI  13
WESTMINSTER*   LGT SNOW  21  19  93 W3        29.96R

$$

MDZ501>502-130300-
WESTERN MARYLAND

CITY           SKY/WX    TMP DP  RH WIND       PRES   REMARKS
OAKLAND*       CLOUDY    12  10  92 W13G24    29.82F FOG     WCI  -3
CUMBERLAND*    CLOUDY    27  14  59 W5        30.02F

$$

VAZ025>031-130300-
SHENANDOAH VALLEY

CITY           SKY/WX    TMP DP  RH WIND       PRES   REMARKS
WINCHESTER*    LGT SNOW  27  23  86 CALM      29.98S
FRONT ROYAL*   CLOUDY    27  23  86 CALM      29.98S
LURAY*         CLOUDY    25  21  86 E3        29.96S
NEW MARKET*    CLOUDY    28  20  73 N3        29.96S
STAUNTON*      CLOUDY    34  16  47 W13       29.96S WCI  25
WAYNESBORO*    CLOUDY    30  11  45 W7G18     29.93R

$$

WVZ021-048>050-054>055-130300-
EASTERN WEST VIRGINIA PANHANDLE

CITY           SKY/WX    TMP DP  RH WIND       PRES   REMARKS
MARTINSBURG    CLOUDY    22  20  92 CALM      29.99S
PETERSBURG*    CLOUDY    27  15  60 CALM      29.99S

$$

VAZ036>039-050-130300-
CENTRAL FOOTHILLS

CITY           SKY/WX    TMP DP  RH WIND       PRES   REMARKS
CHARLOTTESVILL CLOUDY    30  16  56 NE5       29.96R
CULPEPER*      CLOUDY    27  16  63 CALM      30.01R
ORANGE*        CLOUDY    30  18  59 CALM      30.00S
GORDONSVILLE*  CLOUDY    29  18  63 CALM      29.98S
WARRENTON*     CLOUDY    28  22  80 CALM      29.99S

$$

VAZ055>057-130300-
NORTH AND CENTRAL PIEDMONT

CITY           SKY/WX    TMP DP  RH WIND       PRES   REMARKS
FREDERICKSBRG* CLOUDY    28  17  64 S3        30.00S
STAFFORD*      CLOUDY    27  14  59 CALM      30.04S

$$

NCZ024-NYZ072-PAZ021-071-VAZ022-071-130300-
OTHER REGIONAL OBSERVATIONS

CITY           SKY/WX    TMP DP  RH WIND       PRES   REMARKS
NEW YORK CITY  CLOUDY    23   4  44 VRB3      29.98F
PITTSBURGH     LGT SNOW  19  13  77 SW8       29.94S WCI   9
ROANOKE        CLOUDY    33  17  51 W20G28    30.00R WCI  21
RICHMOND       MOCLDY    25  18  74 S3        30.00F
RALEIGH        CLOUDY    31  22  69 SW7       30.04F

$$

ANZ530>537-130300-
MARINE OBSERVATIONS

STATION/POSITION TIME  TEMP    WIND        PRES
                       AIR SEA DIR/SP/G
                 (UTC) (F)     (DEG/KT/KT) (MB)
THOMAS PT LIGHT  0200   27 36  170/  9/ 10 1016.8F
BALT KEY BRIDGE  0100   25                 1016.4F
COVE POINT       0100   26                 1016.9S
LEWISETTA        0100   27 36              1016.4R
SOLOMONS ISLAND  0100   28 39                N/A
PINEY POINT      0100          220/  6/  7   N/A

$$




USA.gov is the U.S. government's official web portal to all federal, state and local government web resources and services.